COSMOS 2237

Satellite information

Favourite Embed

Satellite Type and Status

PAYLOADIN ORBIT

Key statistics

Satellite COSMOS 2237 at a glance.

Uptime

11950

Days in orbit

Revolutions

≈ 14.1

Per day

Orbit

LEO

Low Earth Orbit

Inclination

70.8

Latest

Satellite identification and parameters

Extended collection of information and parameters for COSMOS 2237.

Object identification

Identified? True

Debris? False

Object name: COSMOS 2237

International designator: 1993-016A

Object number (NORAD): 22565

Object ID (CCSDS): 22565

Country: COMMONWEALTH OF INDEPENDENT STATES (CIS)

Current information (Y/N): Y

RCS size: LARGE

Orbital parameters

Period: 101.955 minutes

Inclination: 70.7701 deg

SMA: 7229.343 km

Apoapsis: 855.914 km

Periapsis: 846.501 km

RAAN: 348.3092 deg

Eccentricy: 0.00065102

Argument of periapsis: 209.3441 deg

Mean anomaly: 150.7314 deg

Mean motion: 14.12389692 rev/day

Mean motion (dot): -0.00000185 rev/day2

B* drag term: -0.000073438236 1/REarth

Two-line elements (TLE)

Creation date: Dec. 12, 2025, 10:14 a.m.

Reference frame: TEME

Reference center: EARTH

Epoch: Dec. 12, 2025, 7:16 a.m. UTC

TLE line 0: 0 COSMOS 2237

TLE line 1: 1 22565U 93016A 25346.30315078 -.00000185 00000-0 -73438-4 0 9991

TLE line 2: 2 22565 70.7701 348.3092 0006510 209.3441 150.7314 14.12389692686969

Live tracking on map

Real-time ground track for satellite COSMOS 2237.

In-orbit conjunctions

A list of the most updated potential collisions computed for object COSMOS 2237.

Target Orbit TCA Probability of collision Miss distance Type
FENGYUN 1C DEB SSO 2025-10-06 13:05:08 0.0006885941 170.0 (m) DEBRIS
FENGYUN 1C DEB SSO 2025-08-27 20:00:56 0.0001635255 193.0 (m) DEBRIS
FENGYUN 1C DEB SSO 2025-06-07 22:01:25 0.0004925236 112.0 (m) DEBRIS
CZ-6A DEB SSO 2025-06-05 21:52:13 0.0001622201 718.0 (m) DEBRIS
CZ-6A DEB SSO 2025-05-05 18:43:57 0.0001336306 911.0 (m) DEBRIS

Associated space launch

Second generation ELING satellite

COSMOS 2237 was lifted into orbit during the mission ‘Zenit-2 | Tselina-2 13’, on board a Zenit-2 space rocket.

The launch took place on March 26, 1993, 2:21 a.m. from 45/1.

For more information about the launch, click the button.

Launch to space Zenit-2 | Tselina-2 13
Zenit-2 | Tselina-2 13

Agency: N/A

Status: Launch Successful

Launch date: March 26, 1993, 2:21 a.m. UTC

Rocket: Zenit-2

Launch pad: 45/1

Location: Baikonur Cosmodrome, Republic of Kazakhstan

...

Latest news about this satellite

There are no fresh news available about this satellite. Check back as we update our databases every day.


Newsletter sign-up

Weekly statistics, charts and insights to help you stay on top of the space industry.